Location: Ostrava
(49.8330°N, 18.2830°E)
Time: 03:11:39
(UTC+02:00)

Envisat - Pass Details

Date: 18 January 2022
Orbit: 764 x 765 km, 98.2° (Epoch: 22 May)

Event Time Altitude Azimuth Distance (km) Brightness Sun altitude
Rises 05:13:04 0° 11° (NNE) 3,242 6.3 -22.6°
Reaches altitude 10° 05:15:24 10° 9° (N) 2,312 5.5 -22.2°
Maximum altitude 05:20:26 64° 289° (WNW) 849 2.9 -21.4°
Drops below altitude 10° 05:25:26 10° 209° (SSW) 2,296 5.3 -20.6°
Sets 05:27:44 0° 206° (SSW) 3,218 6.1 -20.2°
